Weather History for Ottumwa, IA

Change the Weather History Date:

Wednesday, November 7, 2012

  Actual Average Record
Temperature  
Mean Temperature 40 °F 44 °F  
Max Temperature 47 °F 54 °F 77 °F (1937)
Min Temperature 32 °F 34 °F -5 °F (1991)
Degree Days  
Heating Degree Days 25 21  
Month to date heating degree days 160 139  
Since 1 July heating degree days 743 663  
Cooling Degree Days 0 0  
Month to date cooling degree days 0 0  
Year to date cooling degree days 1235 938  
Moisture  
Dew Point 33 °F    
Average Humidity 69    
Maximum Humidity 85    
Minimum Humidity 53    
Precipitation  
Precipitation T in 0.08 in 0.62 in (1938)
Month to date precipitation 0.21 0.63  
Year to date precipitation 23.96 33.95  
Sea Level Pressure  
Sea Level Pressure 30.09 in    
Wind  
Wind Speed 8 mph (NW)    
Max Wind Speed 28 mph    
Max Gust Speed 35 mph    
Visibility 9 miles    
Events      
T = Trace of Precipitation, MM = Missing Value Source: NWS Daily Summary

Daily Weather History Graph

Daily Weather History Graph

Search for Another Location

Airport:

Trip Planner

Search our weather history database for the weather conditions in past years. The results will help you decide how hot, cold, wet, or windy it might be!

Date:

Astronomy

Nov. 07, 2012 Rise Set
Actual Time 6:48 AM CST 4:57 PM CST
Civil Twilight 6:19 AM CST 5:26 PM CST
Nautical Twilight 5:46 AM CST 5:59 PM CST
Astronomical Twilight 5:14 AM CST 6:32 PM CST
Moon No Moon Rise 1:10 PM CST (11/7)
Length of Visible Light 11h 07m
Length of Day
10h 09m
Last Quarter, 43% of the Moon is Illuminated
Nov 7
Last Quarter
Nov 13
New
Nov 20
First Quarter
Nov 28
Full
Dec 6
Last Quarter

Hourly Weather History & Observations

Time (CST) Temp. Windchill Dew Point Humidity Pressure Visibility Wind Dir Wind Speed Gust Speed Precip Events Conditions
12:53 AM 44.1 °F 37.4 °F 35.1 °F 71% 29.96 in 10.0 mi NW 13.8 mph - N/A   Overcast
1:24 AM 44.6 °F 35.9 °F 35.6 °F 71% 29.95 in 10.0 mi NNW 23.0 mph 32.2 mph N/A   Overcast
1:53 AM 42.1 °F 34.9 °F 37.0 °F 82% 29.97 in 10.0 mi NW 13.8 mph - 0.00 in   Overcast
2:04 AM 42.8 °F 35.8 °F 35.6 °F 76% 29.96 in 10.0 mi NW 13.8 mph - N/A   Overcast
2:53 AM 41.0 °F 33.1 °F 35.1 °F 79% 29.99 in 10.0 mi NNW 15.0 mph - N/A   Overcast
3:53 AM 39.9 °F 32.1 °F 35.1 °F 83% 30.00 in 10.0 mi NNW 13.8 mph - N/A   Overcast
4:25 AM 39.2 °F 31.6 °F 35.6 °F 87% 30.01 in 10.0 mi NNW 12.7 mph - N/A   Mostly Cloudy
4:53 AM 39.0 °F 30.6 °F 34.0 °F 82% 30.03 in 10.0 mi NNW 15.0 mph 24.2 mph N/A   Overcast
5:53 AM 39.0 °F 31.4 °F 34.0 °F 82% 30.06 in 10.0 mi NNW 12.7 mph - N/A   Overcast
6:53 AM 39.0 °F 32.3 °F 34.0 °F 82% 30.08 in 10.0 mi North 10.4 mph - N/A   Overcast
7:28 AM 35.6 °F 29.2 °F 33.8 °F 93% 30.09 in 10.0 mi NNW 8.1 mph - N/A   Mostly Cloudy
7:53 AM 39.0 °F 32.3 °F 34.0 °F 82% 30.11 in 10.0 mi NNW 10.4 mph - N/A   Mostly Cloudy
8:53 AM 42.1 °F 34.9 °F 35.1 °F 76% 30.12 in 10.0 mi NNW 13.8 mph - N/A   Clear
9:53 AM 45.0 °F 39.7 °F 34.0 °F 65% 30.14 in 10.0 mi North 10.4 mph - N/A   Clear
10:32 AM 44.6 °F 39.2 °F 33.8 °F 66% 30.14 in 10.0 mi NW 10.4 mph - N/A   Mostly Cloudy
10:49 AM 44.6 °F 40.2 °F 33.8 °F 66% 30.14 in 10.0 mi North 8.1 mph - N/A   Overcast
10:53 AM 45.0 °F 40.6 °F 33.1 °F 63% 30.15 in 10.0 mi NNW 8.1 mph - N/A   Overcast
11:53 AM 45.0 °F 42.6 °F 33.1 °F 63% 30.14 in 10.0 mi WSW 4.6 mph - N/A   Overcast
12:53 PM 46.9 °F - 33.1 °F 59% 30.13 in 10.0 mi Variable 3.5 mph - N/A   Overcast
1:53 PM 46.0 °F - 30.9 °F 56% 30.12 in 10.0 mi Calm Calm - N/A   Overcast
2:53 PM 46.0 °F - 32.0 °F 58% 30.12 in 10.0 mi Calm Calm - N/A   Overcast
3:53 PM 46.0 °F 44.8 °F 32.0 °F 58% 30.12 in 10.0 mi Variable 3.5 mph - N/A   Overcast
4:53 PM 46.0 °F - 32.0 °F 58% 30.13 in 10.0 mi Calm Calm - N/A   Overcast
5:53 PM 44.1 °F - 32.0 °F 63% 30.14 in 8.0 mi Calm Calm - N/A   Overcast
6:49 PM 44.6 °F - 30.2 °F 57% 30.12 in 2.0 mi Calm Calm - N/A   Haze
6:53 PM 41.0 °F - 30.9 °F 67% 30.14 in 2.5 mi Calm Calm - N/A   Haze
7:00 PM 41.0 °F - 30.2 °F 65% 30.12 in 7.0 mi Calm Calm - N/A   Mostly Cloudy
7:53 PM 37.0 °F 34.5 °F 30.0 °F 76% 30.14 in 10.0 mi SSE 3.5 mph - N/A   Clear
8:53 PM 34.0 °F 28.0 °F 28.9 °F 82% 30.15 in 10.0 mi South 6.9 mph - N/A   Clear
9:53 PM 33.1 °F 26.9 °F 28.9 °F 85% 30.16 in 10.0 mi South 6.9 mph - N/A   Clear
10:53 PM 33.1 °F 26.9 °F 28.0 °F 82% 30.16 in 10.0 mi South 6.9 mph - N/A   Clear
11:53 PM 34.0 °F 28.0 °F 30.0 °F 85% 30.16 in 10.0 mi South 6.9 mph - N/A   Clear